AO-07 1 07530U 74089B 20359.80709262 -.00000028 00000-0 10754-3 0 9997 2 07530 101.8300 328.6736 0012346 359.0426 69.6961 12.53646634110087 UO-11 1 14781U 84021B 20359.06425200 .00000224 00000-0 33526-4 0 9995 2 14781 97.5895 1.5940 0007183 304.3209 55.7325 14.83229401980935 LO-19 1 20442U 90005G 20359.85621244 .00000020 00000-0 24004-4 0 9993 2 20442 98.7181 307.9688 0011050 319.0775 40.9579 14.32971549615885 HUBBLE 1 20580U 90037B 20359.78541873 .00000647 00000-0 28299-4 0 9997 2 20580 28.4689 140.6956 0002673 345.7807 123.7743 15.09518447484835 MET-2/21 1 22782U 93055A 20359.17642126 .00000008 00000-0 -61399-5 0 9993 2 22782 82.5501 83.0280 0023536 64.9577 357.3974 13.83833443379559 AO-27 1 22825U 93061C 20359.74764817 .00000008 00000-0 20949-4 0 9997 2 22825 98.9246 7.0070 0008445 176.4204 183.7039 14.30101664421282 IO-26 1 22826U 93061D 20359.47951988 .00000012 00000-0 22587-4 0 9990 2 22826 98.9187 6.6583 0009190 165.5482 194.5964 14.30438998421466 FO-29 1 24278U 96046B 20358.83280343 -.00000022 00000-0 16759-4 0 9994 2 24278 98.5873 83.9330 0349451 244.4357 112.0277 13.53101473202749 NOAA-15 1 25338U 98030A 20359.79585099 .00000043 00000-0 36434-4 0 9993 2 25338 98.7007 23.7189 0011370 71.4287 288.8127 14.26005379176350 GO-32 1 25397U 98043D 20358.84893601 -.00000004 00000-0 17716-4 0 9998 2 25397 98.7512 299.0829 0000746 171.1601 188.9591 14.23697759166729 ISS 1 25544U 98067A 20359.79278097 .00001642 00000-0 37653-4 0 9999 2 25544 51.6448 125.3506 0001413 157.4570 354.1445 15.49223194261566 NO-44 1 26931U 01043C 20358.77097305 -.00000008 00000-0 28565-4 0 9994 2 26931 67.0518 13.8315 0007371 273.4145 86.6113 14.30600043 4229 SO-50 1 27607U 02058C 20359.52988164 .00000092 00000-0 33654-4 0 9995 2 27607 64.5541 153.2164 0029747 101.2718 259.1730 14.75694774968903 CO-55 1 27844U 03031E 20359.80068396 .00000087 00000-0 58758-4 0 9993 2 27844 98.6817 4.6584 0009167 220.0698 139.9804 14.22277789907192 CO-57 1 27848U 03031J 20359.81254695 .00000065 00000-0 49124-4 0 9990 2 27848 98.6877 5.2378 0008904 233.7903 126.2452 14.21859215907027 RS-22 1 27939U 03042A 20359.76676420 .00000194 00000-0 43393-4 0 9996 2 27939 98.1159 132.3774 0014235 110.9938 249.2796 14.66926362921914 NOAA-18 1 28654U 05018A 20359.70553996 .00000072 00000-0 63423-4 0 9993 2 28654 99.0201 57.6764 0014957 57.7728 302.4891 14.12567195803868 CO-58 1 28895U 05043F 20359.58056635 .00000204 00000-0 48023-4 0 9998 2 28895 98.0343 130.9260 0017573 44.9976 315.2647 14.63845393808655 Falconsat-3 1 30776U 07006E 20358.86691832 .00006860 00000-0 17351-3 0 9997 2 30776 35.4332 147.2590 0001543 97.8176 262.2726 15.39122411766021 CO-65 1 32785U 08021C 20359.10024860 .00000482 00000-0 57390-4 0 9998 2 32785 97.5921 338.9774 0011932 219.6801 140.3545 14.88595284686156 AAUSAT2 1 32788U 08021F 20358.91453992 .00000598 00000-0 59122-4 0 9994 2 32788 97.4966 355.0647 0012635 134.2029 226.0233 14.95310828687728 DO-64 1 32789U 08021G 20358.84886119 .00003061 00000-0 20092-3 0 9999 2 32789 97.3983 34.8528 0012566 33.0454 327.1558 15.08311289690452 CO-66 1 32791U 08021J 20359.50916895 .00000737 00000-0 79400-4 0 9996 2 32791 97.5553 345.4272 0013020 182.6883 177.4268 14.91224290686781 RS-30 1 32953U 08025A 20359.74019090 .00000028 00000-0 12906-3 0 9997 2 32953 82.5018 159.5889 0019166 0.1377 359.9701 12.43099106571275 PRISM 1 33493U 09002B 20359.86507638 .00001200 00000-0 10871-3 0 9998 2 33493 98.1660 308.2862 0015716 141.6787 218.5554 14.97334077648202 NOAA-19 1 33591U 09005A 20359.86530012 .00000029 00000-0 41311-4 0 9994 2 33591 99.1934 10.1535 0013081 261.7112 98.2575 14.12445381612273 TISAT-1 1 36799U 10035E 20359.50412221 .00000740 00000-0 79918-4 0 9998 2 36799 98.2014 177.2582 0013375 69.4826 290.7825 14.91546174567458 JUGNU 1 37839U 11058B 20358.72317241 .00000304 00000-0 20291-4 0 9995 2 37839 19.9596 214.9453 0018855 314.9282 109.5865 14.12698387475699 SRMSAT 1 37841U 11058D 20359.51564193 .00000314 00000-0 27406-4 0 9992 2 37841 19.9721 278.4012 0011981 171.4186 346.4007 14.10681348475136 AO-71 1 37854U 11061E 20359.51361273 .00003215 00000-0 16549-3 0 9992 2 37854 101.7126 189.1195 0156431 216.4057 142.6437 15.07942466500563 HRBE 1 37855U 11061F 20358.45338161 .00003790 00000-0 19046-3 0 9998 2 37855 101.7264 184.5700 0168923 233.8371 124.7114 15.06958248499664 HORYU-2 1 38340U 12025D 20358.70066945 .00000320 00000-0 54295-4 0 9997 2 38340 98.2575 56.5778 0012145 151.9979 208.1886 14.75948117462875 RS-40 1 38735U 12041C 20359.47007518 .00000040 00000-0 21945-3 0 9993 2 38735 82.4767 242.1703 0017574 105.0446 255.2578 12.42581271381453 BEESAT-3 1 39135U 13015F 20358.86386126 .00002458 00000-0 12673-3 0 9990 2 39135 64.8685 49.5047 0021182 210.7409 149.2479 15.18743301424364 BEESAT-2 1 39136U 13015G 20358.59178286 .00002468 00000-0 12869-3 0 9995 2 39136 64.8774 56.0682 0031243 264.4255 95.3308 15.18128612424214 ZACUBE-1 1 39417U 13066B 20359.51463504 .00000490 00000-0 67279-4 0 9995 2 39417 97.5775 347.0907 0059166 16.1353 344.1727 14.81390584383175 TRITON-1 1 39427U 13066M 20359.64080029 .00000257 00000-0 48764-4 0 9996 2 39427 97.7532 310.2783 0113195 189.1444 170.7703 14.68119751379754 GOMX-1 1 39430U 13066Q 20359.78584598 .00000362 00000-0 74817-4 0 9990 2 39430 97.8069 286.9519 0149804 305.4132 53.3167 14.59509267377565 LO-74 1 39440U 13066AA 20359.50332218 .00000420 00000-0 64692-4 0 9996 2 39440 97.6540 331.7380 0081440 83.3518 277.6954 14.76123029381819 AO-73 1 39444U 13066AE 20359.53673051 .00000611 00000-0 80658-4 0 9998 2 39444 97.5698 349.4301 0058038 7.4220 352.7839 14.82271390382112 SPROUT 1 39770U 14029E 20359.73597401 .00001092 00000-0 12472-3 0 9998 2 39770 97.9047 105.3574 0009976 66.4866 293.7414 14.88082265357353 DUCHIFAT-1 1 40021U 14033M 20359.40437850 .00000709 00000-0 77276-4 0 9997 2 40021 97.9578 291.9370 0013569 27.0009 333.1912 14.91114930354194 NANOSATCBR1 1 40024U 14033Q 20359.06472618 .00000645 00000-0 72288-4 0 9990 2 40024 97.9397 287.3256 0013024 33.1432 327.0599 14.90250087353995 DTUSAT-2 1 40030U 14033W 20359.49029291 .00000506 00000-0 59916-4 0 9998 2 40030 97.9098 280.8611 0012735 35.8532 324.3537 14.88849418353790 EO-80 1 40032U 14033Y 20359.51544193 .00000510 00000-0 60433-4 0 9997 2 40032 97.9106 280.8903 0012729 36.7913 323.4175 14.88802773353782 ANTELSAT 1 40034U 14033AA 20359.16618966 .00000366 00000-0 60904-4 0 9992 2 40034 97.6911 205.5461 0059880 105.1608 255.6235 14.74365931350368 VELOX-1 1 40057U 14034E 20359.88064875 .00000433 00000-0 67699-4 0 9994 2 40057 98.3045 142.3905 0009734 254.0013 106.0127 14.78021352349757 DAURIA DX 1 1 40071U 14037C 20359.85723594 .00000152 00000-0 27008-4 0 9998 2 40071 98.4581 188.8505 0007272 244.2096 115.8374 14.81432559349444 HODOYOSHI-1 1 40299U 14070B 20359.78922564 .00001103 00000-0 47830-4 0 9999 2 40299 97.3064 71.9534 0011365 241.6719 266.4773 15.24375165340809 CHUBUSAT-1 1 40300U 14070C 20359.74073705 .00001175 00000-0 52944-4 0 9993 2 40300 97.2669 63.0044 0018046 263.0989 249.8901 15.22839075340463 QSAT-EOS 1 40301U 14070D 20359.79606338 .00003335 00000-0 12475-3 0 9997 2 40301 97.2755 69.7740 0023247 231.1534 269.7092 15.27763520340982 FIREBIRD FU3 1 40377U 15003B 20359.51799520 .00003441 00000-0 13065-3 0 9997 2 40377 99.0842 98.5715 0121516 39.2268 321.7690 15.21130652326191 FIREBIRD FU4 1 40378U 15003C 20359.49956348 .00003733 00000-0 14116-3 0 9990 2 40378 99.0846 98.6640 0121629 39.1365 321.8584 15.21166186326190 GRIFEX 1 40379U 15003D 20359.68033869 .00002971 00000-0 12397-3 0 9998 2 40379 99.0863 89.6032 0131675 67.1461 294.3609 15.17174466325685 NO-84 1 40654U 15025D 20358.48451653 +.00019250 +00000-0 +18915-3 0 1341 2 40654 54.9836 146.0466 0097452 322.1642 37.2666 15.60240504198465 DEORBITSAIL 1 40719U 15032E 20358.77348026 .00000665 00000-0 10094-3 0 9991 2 40719 97.8481 242.5081 0015589 320.2307 39.7760 14.77182045294047 NUDT-PHONESAT 1 40900U 15049B 20359.81586253 .00004257 00000-0 17237-3 0 9990 2 40900 97.4274 9.1842 0013480 40.2770 131.7010 15.25149800292199 XW-2A 1 40903U 15049E 20359.78764725 .00003826 00000-0 85500-4 0 9991 2 40903 97.2631 48.6826 0011070 295.1646 171.8599 15.44077866295837 XW-2C 1 40906U 15049H 20359.78482757 .00001112 00000-0 60584-4 0 9997 2 40906 97.4825 358.4168 0016346 75.0587 50.0041 15.16381536291093 XW-2D 1 40907U 15049J 20359.81318377 .00001375 00000-0 73500-4 0 9991 2 40907 97.4820 358.1874 0015745 72.0494 52.1043 15.16655488291125 LILACSAT-2 1 40908U 15049K 20359.77953995 .00000493 00000-0 30482-4 0 9990 2 40908 97.4985 356.2462 0017500 83.8244 40.7437 15.14225605290798 XW-2E 1 40909U 15049L 20359.77366446 .00001809 00000-0 89668-4 0 9992 2 40909 97.4661 1.9229 0014929 62.5120 43.6951 15.18937311291415 XW-2F 1 40910U 15049M 20359.79789310 .00001932 00000-0 96851-4 0 9994 2 40910 97.4713 1.0233 0016030 61.8498 110.1223 15.18443841291216 XW-2B 1 40911U 15049N 20359.80668117 .00001443 00000-0 77152-4 0 9998 2 40911 97.4821 358.8784 0015638 73.2950 50.9627 15.16577866291014 DCBB 1 40912U 15049P 20359.81011779 .00002268 00000-0 10541-3 0 9990 2 40912 97.4476 5.3392 0015680 38.7785 86.2127 15.20903764291640 TW-1C 1 40926U 15051B 20359.77872285 .00133451 00000-0 61841-3 0 9998 2 40926 97.0545 54.0265 0004008 85.9028 8.7675 15.83083437296911 TW-1A 1 40928U 15051D 20359.78272235 .00005694 00000-0 12634-3 0 9993 2 40928 97.0932 22.9417 0008996 202.5058 244.8721 15.44068233294722 IO-86 1 40931U 15052B 20357.58746474 .00000641 00000-0 19804-6 0 9991 2 40931 5.9972 73.6973 0013200 55.9615 304.1765 14.76655668283118 LQSat 1 40958U 15057A 20359.71215512 .00000034 00000-0 12750-4 0 9993 2 40958 97.8291 56.6376 0016687 257.7932 102.1409 14.73147567280518 ATHENOXAT-1 1 41168U 15077C 20359.57916483 .00002983 00000-0 11868-3 0 9991 2 41168 14.9877 105.9917 0011124 257.5336 211.4925 15.14983711278214 ChubuSat-2 1 41338U 16012B 20358.91159977 .00000526 00000-0 34017-4 0 9997 2 41338 31.0020 222.0468 0013784 194.6640 165.3597 15.00408383266219 ChubuSat-3 1 41339U 16012C 20359.81715982 .00000438 00000-0 27059-4 0 9992 2 41339 31.0116 213.7055 0013430 212.1252 147.8594 15.00565553266347 Horyu-4 1 41340U 16012D 20358.75261797 .00000799 00000-0 53267-4 0 9996 2 41340 31.0036 206.1346 0014016 228.6675 131.2755 15.01687645266356 OUFTI-1 1 41458U 16025C 20358.89418348 .00003814 00000-0 19060-3 0 9994 2 41458 98.1214 119.7861 0160041 291.7606 66.6653 15.07633583256012 e-st@r-II 1 41459U 16025D 20359.86085171 .00002606 00000-0 13306-3 0 9992 2 41459 98.1202 120.0550 0161386 290.9124 67.4901 15.07144368256113 AAUSAT4 1 41460U 16025E 20359.62451787 .00004061 00000-0 19710-3 0 9990 2 41460 98.1197 122.8659 0149793 278.0151 80.4144 15.09766749256325 LO-87 1 41557U 16033B 20359.80365730 .00002626 00000-0 96618-4 0 9996 2 41557 97.3992 88.8150 0014442 129.5140 347.1359 15.28675034254846 NuSat2 1 41558U 16033C 20359.78064515 .00002996 00000-0 10325-3 0 9991 2 41558 97.4072 91.8421 0013568 125.3608 351.8411 15.30730074254999 Lapan A3 1 41603U 16040E 20359.81044266 .00000237 00000-0 14098-4 0 9993 2 41603 97.2837 47.1048 0011658 253.8780 217.4966 15.19931915250051 Swayam 1 41607U 16040J 20358.69317582 .00003742 00000-0 15272-3 0 9994 2 41607 97.2946 53.4042 0011506 234.9778 125.0381 15.24968010250258 Pratham 1 41783U 16059A 20359.66524877 .00000096 00000-0 27543-4 0 9998 2 41783 97.9919 49.5122 0034834 77.7447 282.7653 14.63099414226699 AlSat 1N 1 41789U 16059G 20359.65464041 .00000103 00000-0 28192-4 0 9999 2 41789 97.9964 52.7742 0029567 64.7294 295.6966 14.64373419226862 ScatSat 1 41790U 16059H 20359.87663738 .00000007 00000-0 13092-4 0 9995 2 41790 98.3931 36.4805 0006425 59.5182 300.6638 14.50800301224836 TY-1 1 41844U 16066D 20359.79852609 .00001695 00000-0 70037-4 0 9997 2 41844 97.4022 5.8629 0016034 38.9491 133.7595 15.25279023229276 Pegasus-1 1 41846U 16066F 20358.71233270 .00000441 00000-0 76395-4 0 9998 2 41846 98.6374 50.5071 0366863 29.5757 332.5640 14.37905106216162 CAS-2T 1 41847U 16066G 20358.73375474 .00000161 00000-0 34367-4 0 9996 2 41847 98.6292 50.8977 0365947 24.8830 336.9517 14.38129357216621 EO-88 1 42017U 17008BX 20358.89147235 .00003622 00000-0 13832-3 0 9990 2 42017 97.3399 63.5303 0006556 26.3270 333.8301 15.27257252214453 CAS-4B 1 42759U 17034B 20359.68595137 .00000468 00000-0 41684-4 0 9990 2 42759 43.0190 61.7434 0008751 153.5374 348.0270 15.10012250194724 CAS-4A 1 42761U 17034D 20359.68657285 .00000490 00000-0 42929-4 0 9994 2 42761 43.0188 60.9132 0009171 155.0950 347.3128 15.10092529194725 UCLSat 1 42765U 17036A 20359.66410264 .00002871 00000-0 12067-3 0 9996 2 42765 97.2769 48.5741 0012754 77.8597 282.4069 15.24135465194952 NIUSat 1 42766U 17036B 20358.69614427 .00002074 00000-0 93017-4 0 9996 2 42766 97.2764 44.5745 0016884 76.5114 283.8003 15.22181511194478 LituanicaSAT 2 1 42768U 17036D 20359.68482927 .00004923 00000-0 19900-3 0 9999 2 42768 97.2838 48.9193 0015710 67.6871 292.6031 15.25078807194829 Aalto 1 1 42775U 17036L 20358.86574378 .00001579 00000-0 71472-4 0 9995 2 42775 97.2739 45.0548 0015343 75.4402 284.8535 15.22222666194483 URSA MAIOR 1 42776U 17036M 20358.69901516 .00001895 00000-0 84648-4 0 9995 2 42776 97.2752 45.2650 0015137 75.6083 284.6833 15.22446443194472 Max Valier Sat 1 42778U 17036P 20359.04934230 .00001928 00000-0 84558-4 0 9993 2 42778 97.2813 47.2108 0013663 77.2815 282.9948 15.23077664194581 Pegasus 1 42784U 17036V 20358.67934105 .00002804 00000-0 11917-3 0 9991 2 42784 97.2775 47.2282 0013357 81.9466 278.3287 15.23771270194581 NUDATSat 1 42787U 17036Y 20358.88831450 .00002646 00000-0 10749-3 0 9992 2 42787 97.2811 49.3028 0012775 75.3157 284.9506 15.25361966194567 SUCHAI 1 1 42788U 17036Z 20359.68050615 .00003128 00000-0 13008-3 0 9995 2 42788 97.2785 48.9777 0012808 76.9907 283.2760 15.24432298194853 SKCUBE 1 42789U 17036AA 20358.43555555 .00002857 00000-0 11983-3 0 9999 2 42789 97.2780 47.5571 0012764 81.1947 279.0735 15.24220135194578 VZLUSAT 1 1 42790U 17036AB 20358.42054771 .00004087 00000-0 16467-3 0 9993 2 42790 97.2809 48.8375 0012138 78.6429 281.6172 15.25334918194647 VENTA 1 1 42791U 17036AC 20358.41251883 .00002914 00000-0 12225-3 0 9991 2 42791 97.2777 47.5648 0012440 81.8173 278.4476 15.24196792194566 Robusta 1B 1 42792U 17036AD 20358.69286498 .00003232 00000-0 13435-3 0 9990 2 42792 97.2782 48.1209 0012348 80.7283 279.5351 15.24432374194642 D-SAT 1 42794U 17036AF 20359.12295112 .00000363 00000-0 36246-4 0 9992 2 42794 97.4762 22.2049 0127497 91.7607 269.8220 14.91404184190962 TechnoSat 1 42829U 17042E 20359.65878521 .00000413 00000-0 46822-4 0 9994 2 42829 97.4925 232.1947 0014641 16.7285 343.4414 14.91190469187638 QIKCOM-1 1 42983U 98067NF 20359.58942122 .00009469 00000-0 10466-3 0 9996 2 42983 51.6385 65.7895 0004006 51.6910 308.4444 15.63806210180017 AO-91 1 43017U 17073E 20358.74847551 .00000863 00000-0 71569-4 0 9991 2 43017 97.7170 263.6161 0256643 153.1339 208.3435 14.79224539167144 EcAMSat 1 43019U 98067NG 20359.68016623 .00023172 00000-0 18478-3 0 9994 2 43019 51.6413 43.2361 0004293 43.5978 316.5358 15.71039975262640 PICSAT 1 43132U 18004X 20359.44420236 .00003160 00000-0 12900-3 0 9995 2 43132 97.4297 69.4805 0010917 103.7260 256.5193 15.25093325164009 AO-92 1 43137U 18004AC 20359.65764765 .00002511 00000-0 10449-3 0 9996 2 43137 97.4279 69.3696 0010613 105.0066 255.2347 15.24645490164016 TianYi 2 1 43155U 18008A 20359.78062473 .00001401 00000-0 85066-4 0 9996 2 43155 97.4266 63.8263 0016620 207.0457 289.6884 15.12005230161677 Zhou Enlai 1 43156U 18008B 20359.80066079 .00001754 00000-0 10688-3 0 9994 2 43156 97.4310 63.6829 0013839 205.5586 293.2910 15.11577592161629 TianYi 6 1 43158U 18008D 20359.74882309 .00001185 00000-0 74465-4 0 9993 2 43158 97.4235 62.4461 0012757 206.0147 305.3708 15.11065474161556 S-Net D 1 43186U 18014G 20359.69841223 .00000983 00000-0 90563-4 0 9997 2 43186 97.6870 264.3270 0009664 314.5646 45.4786 14.96934032158154 S-Net B 1 43187U 18014H 20359.69827656 .00000982 00000-0 90502-4 0 9994 2 43187 97.6867 264.2993 0009660 314.4696 45.5735 14.96933601158158 S-Net A 1 43188U 18014J 20359.49764649 .00000981 00000-0 90359-4 0 9994 2 43188 97.6869 264.1393 0009667 315.1734 44.8706 14.96931933158125 S-Net C 1 43189U 18014K 20359.16391702 .00001011 00000-0 92969-4 0 9999 2 43189 97.6865 263.7680 0009681 316.2410 43.8044 14.96931687156628 FMN 1 1 43192U 18015A 20359.82794162 .00004626 00000-0 17838-3 0 9990 2 43192 97.4653 128.8092 0016244 135.1297 18.9863 15.26698052160938 Shaonian Xing 1 43199U 18015H 20359.87066654 .00003309 00000-0 12884-3 0 9993 2 43199 97.4438 126.5968 0017230 144.1211 315.0022 15.26573033161003 UBAKUSAT 1 43467U 98067NQ 20359.33162382 .01480504 11874-4 71597-3 0 9990 2 43467 51.6230 10.7318 0005739 66.4148 293.7473 16.20462538150228 EQUISat 1 43552U 98067PA 20359.31831702 .02209352 11967-4 81629-3 0 9993 2 43552 51.6178 18.9655 0005823 63.2102 296.9513 16.23776455140304 SurfSat 1 43614U 18070B 20358.72855543 .00006669 00000-0 16413-3 0 9996 2 43614 93.0272 233.0232 0013427 336.2399 23.8235 15.40535793127601 CP-7 DAVE 1 43615U 18070C 20358.91138528 .00005960 00000-0 14777-3 0 9999 2 43615 93.0274 233.0757 0013547 335.0303 25.0294 15.40314533127629 ELFIN-B 1 43616U 18070D 20359.40499282 .00008430 00000-0 19549-3 0 9999 2 43616 93.0234 233.3064 0013605 333.2528 26.8024 15.42315332127770 ELFIN-A 1 43617U 18070E 20359.40856695 .00007989 00000-0 18333-3 0 9993 2 43617 93.0288 233.9876 0012820 330.1986 29.8538 15.42642913127781 STARS-Me Mother 1 43640U 98067PQ 20359.63522695 .00043968 00000-0 30314-3 0 9998 2 43640 51.6343 59.0650 0004776 27.1864 332.9384 15.74124086126580 CubeBel 1 1 43666U 18083E 20359.83096692 .00001901 00000-0 94572-4 0 9999 2 43666 97.4742 24.2922 0016307 61.3653 112.0057 15.18742481119505 Changshagaoxin 1 43669U 18083H 20359.81995440 .00001448 00000-0 75111-4 0 9993 2 43669 97.4630 21.8913 0012218 57.1037 116.2108 15.17673678119393 Ten-Koh 1 43677U 18084G 20359.09518822 .00000337 00000-0 40528-4 0 9998 2 43677 97.9017 115.9419 0014717 251.2902 108.6719 14.90373449117187 PO-101 1 43678U 18084H 20359.84979667 .00000525 00000-0 57947-4 0 9992 2 43678 97.9039 118.4970 0008473 268.3886 91.6349 14.91693373117401 IRVINE 01 1 43693U 18088D 20358.61328113 .00007619 00000-0 31131-3 0 9998 2 43693 85.0340 311.7028 0015536 322.3474 37.6681 15.24086142117647 QO-100 1 43700U 18090A 20359.47688260 .00000160 00000-0 00000 0 0 9998 2 43700 0.0108 53.0714 0001668 244.8289 353.0212 1.00273323 7850 Reaktor Hello World 1 43743U 18096AA 20358.92638441 .00003171 00000-0 11820-3 0 9997 2 43743 97.4050 71.7147 0017759 173.0806 187.0682 15.28039608115325 MinXSS-2 1 43758U 18099A 20359.45582584 .00000456 00000-0 45949-4 0 9994 2 43758 97.6883 68.1134 0014212 274.3207 85.6390 14.95849111112354 AO-95 1 43770U 18099N 20358.71631808 .00000300 00000-0 32521-4 0 9990 2 43770 97.6874 66.6073 0013176 286.5524 73.4249 14.95145418112197 RANGE-B 1 43772U 18099Q 20359.44605296 .00000389 00000-0 40394-4 0 9999 2 43772 97.6952 68.0650 0012774 269.6870 90.2887 14.95390778112301 RANGE-A 1 43773U 18099R 20359.44798318 .00000085 00000-0 12937-4 0 9993 2 43773 97.6812 66.8117 0012120 269.7211 90.2621 14.95084052112295 MOVE-II 1 43780U 18099Y 20359.47864029 .00001450 00000-0 13549-3 0 9993 2 43780 97.6886 67.7096 0011956 280.0605 79.9267 14.95648386112318 SNUSat 2 1 43782U 18099AA 20359.44733413 .00000161 00000-0 19783-4 0 9999 2 43782 97.6872 67.6040 0011364 268.8825 91.1094 14.95402784112318 SnugLite 1 43784U 18099AC 20358.73348718 .00000849 00000-0 81737-4 0 9993 2 43784 97.6836 66.6773 0013608 279.5017 80.4666 14.95510823112227 ITASat 1 1 43786U 18099AE 20359.47438826 .00000882 00000-0 84825-4 0 9995 2 43786 97.6893 67.9058 0013654 276.0541 83.9124 14.95463884112330 EAGLET 1 1 43790U 18099AJ 20358.94988730 .00000992 00000-0 93896-4 0 9995 2 43790 97.6883 67.7295 0011907 282.8932 77.0959 14.95844078111970 ESEO 1 43792U 18099AL 20358.91059854 -.00000242 00000-0 -16617-4 0 9996 2 43792 97.6853 67.4099 0011896 280.4165 79.5716 14.95666966112020 CSIM 1 43793U 18099AM 20359.15622848 .00001417 00000-0 13031-3 0 9992 2 43793 97.6868 67.7907 0011371 274.2645 85.7277 14.96308225112056 Astrocast 0.1 1 43798U 18099AS 20358.91976829 .00000041 00000-0 87977-5 0 9995 2 43798 97.6881 67.8415 0011092 260.2534 99.7435 14.95991044112274 JO-97 1 43803U 18099AX 20359.46487493 .00000754 00000-0 72909-4 0 9996 2 43803 97.6850 67.6744 0013694 276.0796 83.8865 14.95671657112338 Suomi 100 1 43804U 18099AY 20358.73160864 .00000770 00000-0 74368-4 0 9995 2 43804 97.6848 66.9342 0013757 278.9483 81.0181 14.95651820112236 Al Farabi 2 1 43805U 18099AZ 20359.15673734 .00001541 00000-0 14298-3 0 9990 2 43805 97.6851 67.4949 0013497 276.3876 83.5838 14.95823961112300 PWSat 2 1 43814U 18099BJ 20359.71375653 .00221630 00000-0 64316-2 0 9999 2 43814 97.7901 86.3402 0011699 252.3967 107.5997 15.34538376112601 CHOMPTT 1 43855U 18104G 20358.71177432 .00001979 00000-0 80981-4 0 9995 2 43855 85.0376 49.9464 0019568 76.8054 283.5370 15.23440454112331 ISAT 1 43879U 18111D 20359.88385785 .00000584 00000-0 56573-4 0 9991 2 43879 97.6922 264.1326 0012415 332.8041 27.2537 14.96422082106940 UWE-4 1 43880U 18111E 20359.69929305 .00001204 00000-0 11053-3 0 9997 2 43880 97.6961 264.3264 0011578 337.2098 22.8608 14.96673346106949 Sparrow 1 43881U 18111F 20359.47549713 .00000810 00000-0 75956-4 0 9990 2 43881 97.6959 264.2066 0011816 333.3599 26.7015 14.96714909106917 Lume 1 1 43908U 18111AJ 20358.97647529 .00002537 00000-0 10215-3 0 9992 2 43908 97.2497 253.1653 0020449 188.0456 172.0458 15.25588175110916 FO-98 1 43933U 19003B 20359.68420114 .00002876 00000-0 12438-3 0 9994 2 43933 97.2069 41.9033 0016127 293.3879 66.5662 15.23113899107477 FO-99 1 43937U 19003F 20359.16919647 .00003054 00000-0 12441-3 0 9998 2 43937 97.2027 43.2033 0021911 273.9159 85.9574 15.25000467107545 Delphini 1 1 44030U 98067PW 20359.44733221 .00088605 00000-0 43949-3 0 9995 2 44030 51.6313 63.0042 0004295 29.7870 330.3376 15.81233539108385 MYSat 1 1 44045U 18092F 20358.95536831 .00005371 00000-0 15104-3 0 9995 2 44045 51.6373 201.3849 0010127 289.0599 70.9288 15.38115716104438 AstroCast 0.2 1 44083U 19018F 20359.65292533 .00001687 00000-0 76872-4 0 9998 2 44083 97.3985 57.8398 0011985 220.0571 139.9783 15.21978099 96302 AISTechSat 3 1 44103U 19018AB 20359.74349226 .00001550 00000-0 67681-4 0 9990 2 44103 97.3847 58.2183 0011866 234.8160 273.8418 15.23578201 96401 AISat 1 1 44104U 19018AC 20359.66285608 .00002044 00000-0 66724-4 0 9991 2 44104 97.4457 70.3560 0055873 256.8339 102.6665 15.31507518 96913 Raavana-1 1 44329U 98067QE 20359.55775303 .00028455 00000-0 29811-3 0 9994 2 44329 51.6374 97.8400 0005584 350.6704 9.4186 15.64157068 86684 Uguisu 1 44330U 98067QF 20359.52027540 .00027741 00000-0 29281-3 0 9994 2 44330 51.6353 98.2894 0005571 350.4030 9.6858 15.63981791 86653 NepaliSat-1 1 44331U 98067QG 20359.48496006 .00027319 00000-0 28659-3 0 9996 2 44331 51.6351 98.0555 0005565 352.9130 7.1785 15.64147026 86664 Prox-1 1 44339U 19036A 20358.39489521 .00001150 00000-0 22181-3 0 9995 2 44339 24.0015 2.7841 0011744 59.3485 300.8163 14.53289940 79585 Oculus-ASR 1 44348U 19036K 20358.94067428 .00017140 00000-0 24433-3 0 9992 2 44348 28.5132 217.1730 0349344 174.6433 185.8031 15.07124033 82363 Armadillo 1 44352U 19036P 20358.70693353 .00026572 00000-0 36730-3 0 9995 2 44352 28.5290 208.0216 0328699 188.2531 171.2554 15.12015973 82380 NO-104 1 44354U 19036R 20359.65971418 .00017111 00000-0 23880-3 0 9994 2 44354 28.5284 207.8419 0345142 188.2542 171.2259 15.08397787 82508 NO-103 1 44355U 19036S 20359.68109768 .00031712 00000-0 39869-3 0 9996 2 44355 28.5277 185.4298 0305735 224.7506 132.8040 15.18551678 82735 CP9 1 44360U 19036X 20359.54716906 .00044791 -60339-5 42061-3 0 9991 2 44360 28.5091 153.5583 0265568 278.0807 78.9744 15.31740178 82914 Move-IIb 1 44398U 19038N 20359.87992458 .00002434 00000-0 14091-3 0 9991 2 44398 97.5592 319.0110 0024132 187.8871 172.1984 15.12959131 81361 SONATE 1 44400U 19038Q 20359.51416240 .00000561 00000-0 36082-4 0 9990 2 44400 97.5658 318.6277 0024473 188.7252 171.3554 15.12231205 81299 BeeSat 9 1 44412U 19038AC 20358.61730932 .00001857 00000-0 10917-3 0 9997 2 44412 97.5651 317.9015 0021817 196.0362 164.0181 15.12751615 80869 JAISAT-1 1 44419U 19038F 20359.43678451 .00001776 00000-0 10321-3 0 9991 2 44419 97.5652 319.1235 0020773 191.4929 168.5831 15.13237063 81323 LightSail-2 1 44420U 19036AC 20359.36580263 .00009599 00000-0 19995-2 0 9992 2 44420 24.0069 346.0119 0022004 79.1189 281.1778 14.57896861 78020 Taurus 1 1 44530U 19059C 20359.72283648 .00001672 00000-0 48336-3 0 9992 2 44530 98.5606 82.5851 0013051 309.6611 50.3435 14.45832590 67832 Duchifat 3 1 44854U 19089C 20359.58451874 .00000672 00000-0 60384-4 0 9993 2 44854 36.9662 54.5825 0007299 166.8228 193.2706 14.99264556 56840 OPS-SAT 1 44878U 19092F 20359.50515345 .00002221 00000-0 11890-3 0 9998 2 44878 97.4680 179.6537 0015292 60.6592 299.6166 15.15978379 56322 TO-108 1 44881U 19093C 20359.73275323 .00000055 00000-0 13820-4 0 9996 2 44881 97.9422 74.3224 0015802 135.5234 224.7252 14.81419448 54862 FloripaSat 1 1 44885U 19093G 20359.71263072 .00000383 00000-0 54751-4 0 9998 2 44885 97.9426 74.6480 0015693 145.8195 214.4038 14.82160435 54885 RS-44 1 44909U 19096E 20358.40425543 .00000012 00000-0 -96493-6 0 9997 2 44909 82.5213 229.7596 0217937 144.5164 217.0659 12.79707823 46357 SwampSat-2 1 45115U 19071E 20358.94142642 .00033525 00000-0 79274-3 0 9994 2 45115 51.6378 161.4899 0008921 25.3018 334.8402 15.41466470 50271 HO-107 1 45119U 19071J 20358.72104796 .00003988 00000-0 12830-3 0 9997 2 45119 51.6405 168.1775 0011823 19.0228 341.1194 15.34562660 50179 Phoenix 1 45258U 98067RB 20358.78131483 .00011585 00000-0 18769-3 0 9991 2 45258 51.6395 125.6629 0005648 324.0984 35.9626 15.53259704 47877 AztechSat-1 1 45261U 98067RE 20359.48245233 .00022674 00000-0 31703-3 0 9996 2 45261 51.6388 119.1083 0007044 340.8110 19.2615 15.56713797 48047 QARMAN 1 45263U 98067RG 20359.50625772 .00018029 00000-0 26837-3 0 9992 2 45263 51.6392 120.7641 0006655 338.4056 21.6653 15.55177612 48061 Quetzal 1 1 45598U 98067RL 20359.50671944 .00016710 00000-0 26041-3 0 9997 2 45598 51.6402 123.0229 0002312 67.6841 292.4394 15.53991239 37303 BY70-2 1 45857U 20042B 20359.76831373 .00001253 00000-0 18678-3 0 9998 2 45857 98.0001 71.2720 0011996 62.9888 297.2549 14.76568995 25763 UPMSat 2 1 46276U 20061E 20359.47729758 .00000937 00000-0 51892-4 0 9990 2 46276 97.4532 70.6220 0000594 152.9345 207.1919 15.16202232 17024 AmicalSat 1 46287U 20061R 20359.46586802 .00001158 00000-0 74858-4 0 9995 2 46287 97.5083 70.4282 0002518 12.3463 347.7828 15.10139619 16933 SALSAT 1 46495U 20068K 20358.61395282 .00000438 00000-0 36811-4 0 9996 2 46495 97.6797 291.3377 0015406 312.2458 47.7461 15.03307213 12915 BY70-3 1 46839U 20079N 20359.90898779 .00003763 00000-0 12217-3 0 9999 2 46839 97.2604 71.1989 0009107 108.9969 308.4824 15.32513341 7468 Bobcat-1 1 46921U 98067RR 20358.81739014 .00010569 00000-0 18550-3 0 9996 2 46921 51.6420 129.6620 0002397 139.7692 220.3475 15.51117953 7565 SPOC 1 46922U 98067RS 20359.52171680 .00014068 00000-0 24131-3 0 9995 2 46922 51.6420 126.1170 0001988 147.6210 212.4902 15.51459617 7638 Neutron-1 1 46923U 98067RT 20358.82012601 .00010640 00000-0 18732-3 0 9997 2 46923 51.6419 129.6797 0002255 152.8540 207.2568 15.51022179 7596 /EX
